Regional Weather Roundup
Issued by NWS Little Rock, AR

Home | Current Version | Previous Version | Graphics & Text | Print | Product List | Glossary On
Versions: 1 2 3 4 5 6 7 8 9 10 11 12 13 14 15 16 17 18 19 20 21 22 23 24 25 26 27 28 29
000
ASUS44 KLZK 301505
RWRLZK

WEATHER ROUNDUP FOR ARKANSAS
NATIONAL WEATHER SERVICE LITTLE ROCK AR
1000 AM CDT THU OCT 30 2014

NOTE: "FAIR" INDICATES FEW OR NO CLOUDS BELOW 12,000 FEET WITH NO
SIGNIFICANT WEATHER AND/OR OBSTRUCTIONS TO VISIBILITY.

ARZ001-003-010-029-301600-
NORTHWEST ARKANSAS

CITY           SKY/WX    TMP DP  RH WIND       PRES   REMARKS
FAYETTEVILLE   SUNNY     58  47  66 S10       30.13F
FORT SMITH     SUNNY     53  47  79 CALM      30.16S
HARRISON       SUNNY     53  44  71 SE5       30.12F
BENTONVILLE    PTSUNNY   55  43  62 SW8       30.12S
SILOAM SPGS    SUNNY     57  43  58 S14       30.13S
HIGHFILL       MOSUNNY   56  45  66 S7        30.12S
SPRINGDALE     MOSUNNY   63  45  51 SE7       30.14F
$$

ARZ004-005-016-301600-
NORTH CENTRAL ARKANSAS

CITY           SKY/WX    TMP DP  RH WIND       PRES   REMARKS
BATESVILLE     SUNNY     54  39  58 CALM      30.17S
FLIPPIN        SUNNY     48  37  66 CALM      30.15S
MTN HOME       SUNNY     51  39  63 SE6       30.13F
$$

ARZ040-041-301600-
WEST CENTRAL ARKANSAS

CITY           SKY/WX    TMP DP  RH WIND       PRES   REMARKS
MENA           SUNNY     59  50  72 CALM      30.18S
MOUNT IDA      SUNNY     52  47  83 CALM      30.15S
$$

ARZ009-017-025-026-028-301600-
NORTHEAST ARKANSAS

CITY           SKY/WX    TMP DP  RH WIND       PRES   REMARKS
CORNING        FAIR      50  41  71 CALM      30.18S
JONESBORO      SUNNY     53  43  68 SE3       30.17S
NEWPORT        SUNNY     52  43  71 CALM      30.19S
WALNUT RIDGE   SUNNY     52  41  66 S6        30.16F
BLYTHEVILLE    SUNNY     57  43  59 SE10      30.17F
NW BLYTHEVILLE SUNNY     55  43  62 SE8       30.17F
$$

ARZ022-023-033-042-044-301600-
CENTRAL ARKANSAS

CITY           SKY/WX    TMP DP  RH WIND       PRES   REMARKS
LITTLE ROCK    MOSUNNY   58  45  62 CALM      30.17S
N LITTLE ROCK  MOSUNNY   58  40  50 E6        30.17S
JACKSONVILLE   SUNNY     55  44  67 VRB2      30.17S
SEARCY         SUNNY     56  42  59 SE5       30.18F
HOT SPRINGS    SUNNY     50  48  93 SW3       30.18S
RUSSELLVILLE   SUNNY     53  48  83 SW3       30.16F
$$

ARZ036-301600-
EAST ARKANSAS

CITY           SKY/WX    TMP DP  RH WIND       PRES   REMARKS
WEST MEMPHIS   SUNNY     55  46  71 SE6       30.16S
$$

ARZ050-053-066-070-073-301600-
SOUTHWEST ARKANSAS

CITY           SKY/WX    TMP DP  RH WIND       PRES   REMARKS
ARKADELPHIA    FAIR      52  52 100 CALM      30.19R
CAMDEN         SUNNY     55  50  82 CALM      30.18S
TEXARKANA      SUNNY     61  48  62 VRB6      30.18R
DE QUEEN       SUNNY     54  50  86 CALM      30.17S
$$

ARZ056-057-069-301600-
SOUTHEAST ARKANSAS

CITY           SKY/WX    TMP DP  RH WIND       PRES   REMARKS
PINE BLUFF     SUNNY     57  49  74 CALM      30.17F
STUTTGART      SUNNY     55  46  71 CALM      30.18S
MONTICELLO     SUNNY     60  49  66 CALM      30.18R

$$





USA.gov is the U.S. government's official web portal to all federal, state and local government web resources and services.